TimeMST,TemperatureF,Dew PointF,Humidity,Sea Level PressureIn,VisibilityMPH,Wind Direction,Wind SpeedMPH,Gust SpeedMPH,PrecipitationIn,Events,Conditions,WindDirDegrees,DateUTC
12:53 AM,27.0,21.0,78,30.11,10.0,West,9.2,-,N/A,,Clear,260,2013-02-07 07:53:00
1:53 AM,28.0,21.0,75,30.12,10.0,West,9.2,-,N/A,,Clear,260,2013-02-07 08:53:00
2:53 AM,26.1,19.9,78,30.12,10.0,West,9.2,-,N/A,,Clear,270,2013-02-07 09:53:00
3:53 AM,28.0,19.9,72,30.12,10.0,WSW,12.7,-,N/A,,Scattered Clouds,240,2013-02-07 10:53:00
4:53 AM,27.0,19.0,72,30.14,10.0,WSW,10.4,-,N/A,,Clear,250,2013-02-07 11:53:00
5:53 AM,27.0,19.9,75,30.15,10.0,SW,10.4,-,N/A,,Clear,230,2013-02-07 12:53:00
6:53 AM,25.0,19.9,81,30.16,10.0,Calm,Calm,-,N/A,,Clear,0,2013-02-07 13:53:00
7:53 AM,28.9,21.0,72,30.16,10.0,SSW,9.2,-,N/A,,Clear,200,2013-02-07 14:53:00
8:53 AM,33.1,21.9,64,30.15,10.0,South,3.5,-,N/A,,Clear,170,2013-02-07 15:53:00
9:53 AM,36.0,21.0,55,30.13,10.0,South,10.4,-,N/A,,Clear,190,2013-02-07 16:53:00
10:53 AM,37.9,24.1,57,30.11,10.0,South,11.5,-,N/A,,Clear,170,2013-02-07 17:53:00
11:53 AM,41.0,24.1,51,30.09,10.0,South,16.1,-,N/A,,Clear,180,2013-02-07 18:53:00
12:53 PM,41.0,19.9,43,30.05,10.0,South,16.1,-,N/A,,Clear,190,2013-02-07 19:53:00
1:53 PM,43.0,19.0,38,30.01,10.0,SSW,13.8,20.7,N/A,,Clear,210,2013-02-07 20:53:00
2:53 PM,43.0,18.0,37,30.00,10.0,South,11.5,-,N/A,,Clear,170,2013-02-07 21:53:00
3:53 PM,44.1,19.0,37,29.98,10.0,SSE,11.5,-,N/A,,Clear,160,2013-02-07 22:53:00
4:53 PM,37.9,21.0,51,29.99,10.0,South,3.5,-,N/A,,Clear,170,2013-02-07 23:53:00
5:53 PM,34.0,23.0,64,30.00,10.0,Calm,Calm,-,N/A,,Clear,0,2013-02-08 00:53:00
6:53 PM,37.0,19.0,48,29.99,10.0,South,15.0,-,N/A,,Clear,170,2013-02-08 01:53:00
7:53 PM,36.0,19.0,50,29.97,10.0,SSE,15.0,-,N/A,,Clear,160,2013-02-08 02:53:00
8:53 PM,35.1,21.9,59,29.95,10.0,South,20.7,-,N/A,,Clear,170,2013-02-08 03:53:00
9:53 PM,35.1,19.9,54,29.93,10.0,South,15.0,-,N/A,,Clear,170,2013-02-08 04:53:00
10:53 PM,34.0,19.0,54,29.91,10.0,South,19.6,-,N/A,,Clear,170,2013-02-08 05:53:00
11:53 PM,33.1,19.0,56,29.89,10.0,South,13.8,-,N/A,,Clear,170,2013-02-08 06:53:00